RH
89 99 87 78 74 62 64 61 48 33 34 39 59 65 63 81 83 74 74 47 25 60 70 87 74 90 58 78 75 53 38 26 27 50 54 35 47 74 53 62 91 75 60
89 99 85 82 71 64 62 53 38 38 32 47 56 59 71 80 80 83 66 24 18 52 88 89 66 47 58 77 42 31 26 23 22 21 22 20 22 26 37 72 86 62 60
90 100 82 83 65 62 57 41 52 56 68 53 57 59 75 80 80 74 45 18 33 91 99 73 43 48 55 42 28 26 25 26 26 24 30 56 19 19 22 26 50 78 63
92 100 97 78 64 62 52 40 66 69 72 57 63 72 78 87 80 66 21 24 77 96 91 47 40 41 37 30 29 31 33 34 35 35 69 68 30 26 23 22 24 40 83
96 100 100 72 68 65 46 37 66 77 74 79 74 76 91 84 71 39 20 31 88 87 53 37 38 35 34 32 33 36 36 36 36 39 36 42 47 34 32 29 26 25 29
99 99 88 73 72 66 44 39 66 86 84 85 87 90 89 74 68 24 24 31 82 64 38 38 38 40 38 38 38 37 36 35 35 36 40 37 38 36 36 35 33 30 27
98 99 81 76 73 61 47 56 69 82 90 93 94 96 94 75 55 19 27 31 40 40 43 44 43 44 45 44 44 45 41 41 45 38 41 60 40 41 40 39 38 37 36
98 100 97 78 77 49 55 84 42 70 94 97 96 97 98 84 57 21 28 33 40 42 44 45 45 43 44 45 45 44 45 45 56 46 47 62 44 51 52 48 45 44 42
98 99 95 84 79 47 59 89 60 33 39 83 98 97 98 72 37 23 31 36 39 42 44 44 41 40 40 43 44 44 45 46 77 49 53 78 50 54 57 57 54 53 51
100 99 94 97 85 55 66 91 60 34 24 25 43 70 59 36 24 26 32 37 37 39 40 39 37 36 37 38 41 41 43 45 60 47 53 61 56 57 59 61 61 62 61
97 99 99 100 96 88 95 91 62 40 27 24 38 44 27 31 28 29 36 34 37 38 37 36 35 36 36 37 37 38 40 44 45 47 62 54 56 59 62 64 64 66 66
97 100 98 100 91 88 89 86 80 61 52 91 98 70 89 82 82 79 31 32 34 36 37 37 36 37 38 37 36 39 44 44 44 51 52 54 58 60 64 68 71 74 74
98 97 98 98 88 92 92 93 95 89 95 86 86 94 92 90 38 36 36 39 39 39 41 40 39 39 39 41 42 49 44 48 68 60 60 58 60 65 70 76 83 85 81
98 87 94 86 79 92 96 87 93 80 95 94 56 42 39 37 36 35 37 37 37 36 38 37 41 40 40 41 56 71 61 68 80 71 74 63 67 75 83 86 87 84 80
89 88 92 74 50 52 89 98 95 90 90 91 72 40 31 30 31 32 34 34 35 35 35 36 34 36 37 48 57 74 89 89 88 89 86 73 79 83 84 84 84 81 76
56 98 83 80 52 42 53 73 74 78 89 84 78 50 45 43 39 39 39 44 48 47 42 42 44 45 63 62 80 77 87 90 91 92 91 92 84 85 81 80 78 80 79
68 88 97 84 59 44 46 61 71 55 62 65 67 70 64 57 50 48 53 58 57 48 50 53 52 50 52 54 61 84 90 90 92 89 91 90 89 82 78 84 79 72 79
80 92 83 81 79 62 46 43 58 50 53 35 44 50 57 57 54 44 58 58 66 61 59 60 60 60 61 65 75 84 92 90 87 83 81 84 85 89 88 71 65 71 77
85 94 99 76 61 79 74 69 65 56 66 75 37 47 52 54 54 48 49 55 60 70 72 66 64 64 82 80 89 91 87 85 83 80 81 81 89 78 82 68 48 58 64
84 82 83 65 63 73 77 79 78 73 68 79 75 64 63 67 80 82 83 82 84 86 86 83 74 69 83 91 94 90 81 84 84 82 81 86 89 69 58 48 54 66 61
90 84 80 81 74 70 71 59 78 65 67 73 73 74 68 62 66 80 80 80 85 84 82 85 88 82 92 86 85 85 84 81 82 81 86 81 74 60 56 49 66 70 89
89 95 86 77 65 50 56 54 54 59 68 76 79 84 69 62 64 70 74 72 77 89 89 95 99 98 81 88 95 95 77 71 74 64 75 74 66 54 44 42 57 48 63
87 83 79 73 77 71 70 72 74 84 69 73 62 76 71 72 78 75 64 70 77 88 98 99 100 97 98 92 90 91 80 71 77 76 84 85 65 67 50 48 50 51 60
78 77 79 87 87 84 78 72 73 80 78 79 75 70 65 63 63 71 68 73 65 61 86 97 85 98 100 93 79 81 82 78 93 78 69 72 64 60 64 53 50 46 51
85 89 96 82 73 76 79 78 81 76 62 64 72 76 69 76 63 66 75 81 68 78 83 75 81 85 85 78 77 82 74 71 68 82 71 57 54 66 49 46 51 55 59
79 66 73 85 87 85 64 69 88 80 72 71 83 80 78 84 82 78 79 82 76 87 87 88 83 76 66 75 73 68 69 78 74 46 53 65 72 63 53 54 53 56 63
Wind_Speed
21 26 27 24 22 18 15 13 12 14 19 22 22 20 18 18 17 13 13 12 16 20 19 18 17 17 21 20 17 18 16 17 17 17 18 17 17 16 16 16 15 12 10
25 26 28 25 23 18 15 13 13 14 19 23 22 22 21 19 16 15 13 13 16 20 20 17 20 23 21 18 18 17 17 17 17 17 16 16 15 15 15 16 15 14 13
27 26 28 26 22 18 15 15 17 18 21 25 24 23 22 20 18 15 13 16 20 20 18 19 22 22 20 18 17 17 17 17 17 17 17 13 15 14 14 14 15 15 13
27 27 27 25 22 19 16 18 20 21 23 25 25 24 23 21 18 16 15 19 21 19 18 19 22 21 18 17 16 16 16 16 15 15 13 13 14 14 13 13 13 14 14
27 26 26 26 23 20 18 21 23 22 25 25 25 25 26 21 20 16 19 21 20 19 19 22 20 19 17 16 15 15 14 14 13 14 13 13 12 12 12 12 12 11 11
27 26 27 27 23 20 20 24 25 24 24 25 26 26 22 22 18 17 22 23 21 20 21 20 19 17 15 14 14 13 12 12 12 11 11 12 11 11 11 11 11 11 10
27 26 29 28 24 21 24 24 26 25 24 26 27 26 22 21 17 20 23 23 23 21 20 19 17 15 13 11 11 10 10 9 10 9 9 9 9 10 10 10 10 10 9
26 25 27 28 25 22 26 24 24 25 25 25 27 25 22 18 17 22 23 24 22 20 19 17 15 13 11 9 8 8 7 7 8 7 7 7 7 9 9 9 9 9 9
26 26 27 28 26 24 28 23 23 22 25 26 26 24 20 18 18 24 24 24 22 20 17 15 12 10 9 7 6 5 5 5 5 4 5 5 5 7 7 7 8 8 8
24 25 27 28 25 27 29 24 20 19 22 26 27 24 21 20 24 24 23 22 20 18 15 13 10 8 7 5 4 3 3 3 3 2 3 2 3 5 5 5 6 6 6
28 26 28 24 23 24 26 24 19 17 18 23 26 25 23 24 24 23 21 20 18 16 13 11 8 6 5 4 3 3 2 2 1 1 2 1 1 2 3 3 4 5 5
35 32 30 22 23 26 28 26 21 20 19 19 21 22 19 19 18 17 20 19 17 15 12 10 8 6 5 4 4 3 3 3 2 2 3 2 1 0 1 2 3 5 5
31 32 27 23 24 28 28 27 21 20 18 17 19 20 18 18 22 20 19 18 16 14 11 10 8 8 8 7 6 5 5 4 3 3 3 4 3 3 2 3 4 5 6
13 33 29 25 25 27 26 27 23 23 20 18 19 19 20 20 20 19 18 17 14 13 12 11 10 10 9 8 7 5 5 4 4 4 5 5 5 4 4 5 6 8 9
18 30 27 26 27 30 29 23 22 23 20 18 18 20 19 18 18 17 16 14 13 12 11 11 11 11 10 9 8 6 6 6 6 6 5 7 6 5 6 9 10 11 12
31 26 30 29 27 29 32 29 26 22 20 19 16 17 17 16 16 15 14 12 11 11 12 13 12 11 10 10 8 8 7 7 6 6 6 7 9 10 10 11 12 13 15
33 30 28 27 28 30 31 30 27 23 21 19 15 15 15 13 12 13 13 12 11 10 10 10 11 12 11 11 10 8 7 7 7 7 8 8 10 13 15 16 16 16 16
31 24 32 25 25 24 26 27 26 27 24 20 18 16 15 13 13 13 13 11 11 11 11 12 11 11 11 10 8 7 6 8 8 9 10 10 11 12 16 18 19 20 20
31 22 26 24 22 23 21 21 18 19 18 16 17 13 9 8 10 11 12 12 13 12 11 13 13 13 9 9 8 7 8 10 9 10 11 12 13 19 19 19 20 19 20
35 34 27 29 21 20 20 19 19 18 17 18 18 14 8 7 11 14 13 10 11 11 12 15 14 14 12 9 9 9 11 9 10 11 11 13 14 18 16 18 15 15 15
32 36 41 30 32 23 18 19 20 21 21 19 16 13 7 8 14 18 17 17 17 16 16 15 15 15 13 13 11 10 9 10 11 11 10 10 12 14 19 16 13 13 11
34 33 40 31 37 37 29 26 24 22 25 23 18 12 9 9 7 12 18 22 23 22 21 19 15 15 16 16 11 8 7 7 4 4 12 12 15 15 14 16 15 15 12
33 32 35 35 38 37 28 31 19 19 19 17 15 13 11 13 14 17 20 25 20 20 22 22 20 20 16 13 10 4 4 4 10 9 10 13 13 12 16 15 16 16 14
27 23 28 26 32 36 33 28 25 21 17 11 14 19 20 22 22 17 22 19 25 23 14 14 10 26 19 12 8 5 8 14 8 13 15 17 16 13 13 14 15 16 16
18 17 20 17 20 22 22 27 23 30 24 22 24 22 23 22 22 23 24 25 23 21 23 23 18 21 13 12 17 22 26 27 22 23 17 17 19 17 19 20 19 18 17
24 21 22 24 26 26 27 33 30 30 28 28 26 26 24 27 27 29 27 23 19 21 23 21 21 24 20 22 21 18 21 25 23 21 20 19 18 19 21 20 18 17 17
Wind_Direction
182 175 181 184 183 180 182 187 191 185 182 181 181 174 166 164 163 160 145 134 135 135 132 122 127 124 121 108 109 104 99 91 89 87 90 89 87 87 91 85 70 75 83
169 175 180 181 181 179 181 184 178 171 172 171 175 169 167 167 165 157 146 137 137 133 124 127 120 123 122 116 112 104 97 93 91 90 90 85 83 81 79 89 89 79 78
168 172 177 180 180 177 179 176 163 157 157 164 167 166 165 166 160 151 143 140 134 130 132 125 125 124 124 117 109 103 98 95 91 89 87 85 82 83 83 80 87 88 76
169 171 172 177 179 175 172 169 162 158 156 160 165 163 161 162 157 152 142 139 133 136 135 129 127 126 123 115 108 102 98 94 91 90 87 85 81 80 81 80 82 86 89
171 169 176 176 177 173 168 166 164 159 162 162 164 163 159 159 152 146 143 140 137 137 138 132 130 127 121 114 108 102 96 92 90 85 86 88 82 78 76 78 78 81 87
172 171 181 176 176 174 169 166 164 159 161 162 160 161 161 158 152 147 147 145 140 141 137 135 133 129 121 114 109 102 96 92 86 86 85 83 86 79 75 74 74 73 79
178 174 179 177 176 173 172 165 168 167 161 160 159 161 158 157 153 153 151 149 147 144 141 138 136 131 124 116 110 106 98 91 87 84 83 83 82 77 73 71 70 69 70
182 177 177 179 175 172 175 170 170 171 167 160 161 160 162 162 159 158 156 154 152 149 145 142 139 134 128 121 114 106 102 95 80 79 82 81 82 76 72 69 65 61 59
184 181 182 178 175 173 177 173 171 176 179 177 170 171 178 175 169 162 160 160 159 156 152 150 146 143 138 131 126 114 106 93 95 91 86 82 77 79 72 66 59 54 50
190 186 183 177 173 173 177 173 171 175 179 182 185 187 189 176 166 165 165 165 164 163 164 163 161 158 155 153 152 139 123 105 97 94 88 99 79 77 72 64 53 44 36
199 190 187 174 170 169 173 174 167 165 169 178 178 188 178 165 164 164 169 167 169 172 175 176 178 178 177 183 188 192 186 154 144 166 181 165 100 83 63 51 36 23 13
202 195 182 174 172 168 174 171 162 158 155 155 160 160 153 161 161 166 170 171 175 179 185 191 197 208 219 229 227 227 212 224 223 237 226 230 239 295 358 14 13 1 354
194 191 184 176 173 171 170 167 165 161 155 158 161 163 163 162 167 170 174 178 183 187 195 205 214 221 227 227 232 238 244 239 239 248 251 250 257 273 298 322 346 340 337
222 191 181 179 176 175 171 171 170 172 165 163 167 170 170 170 174 177 181 187 192 199 208 215 222 231 235 239 237 236 241 246 246 250 255 258 259 271 297 312 321 320 316
188 195 188 181 180 182 178 173 170 175 174 173 172 172 175 176 180 185 189 193 200 209 219 228 231 236 238 233 237 239 241 252 256 260 267 269 262 272 290 302 304 303 301
228 200 186 182 179 180 184 185 181 183 179 186 184 179 177 180 187 191 195 199 209 222 229 232 233 232 232 237 237 238 243 251 257 261 256 266 272 274 279 282 283 285 293
196 219 180 187 184 178 178 183 188 189 192 195 197 197 191 191 194 200 204 213 224 231 231 234 234 232 232 239 242 246 252 254 256 264 273 272 280 285 280 273 281 279 281
206 209 182 184 183 178 174 177 183 187 191 189 192 195 199 205 211 216 220 227 233 239 237 240 240 238 240 243 242 246 257 268 267 272 273 287 294 291 296 295 291 283 272
188 193 187 192 187 194 178 172 180 185 182 187 171 165 173 203 225 229 230 235 239 241 245 246 242 241 237 241 233 236 253 258 277 286 285 283 288 300 300 301 303 287 279
191 192 185 182 199 192 185 192 186 193 192 185 180 169 177 210 230 232 232 235 242 250 258 258 247 244 235 225 236 244 267 271 269 278 279 281 292 301 300 308 306 303 289
190 198 191 189 206 193 199 207 201 208 196 205 201 198 211 259 243 253 247 237 228 242 260 263 247 238 233 225 241 260 258 271 272 273 278 289 292 291 301 305 302 304 299
188 197 199 188 184 198 216 222 230 228 221 224 223 223 221 258 275 267 269 263 251 242 246 244 234 238 230 226 230 247 263 266 269 312 298 292 291 292 298 300 295 300 284
196 203 200 201 198 216 220 230 229 206 212 217 229 240 254 283 281 282 277 266 275 278 249 249 244 232 235 228 222 225 264 252 306 293 291 296 292 290 298 294 289 291 290
194 208 219 215 218 227 237 232 230 237 232 256 277 274 270 279 277 287 285 279 257 291 287 264 284 248 207 195 214 235 276 288 304 304 299 299 292 289 289 288 285 285 278
203 202 218 205 202 237 241 236 238 248 257 261 260 255 244 255 253 266 277 268 269 252 260 263 267 245 209 228 260 275 296 287 276 272 280 279 287 295 290 290 287 281 273
198 190 199 211 222 229 235 232 241 244 245 240 245 248 251 247 251 254 252 252 256 249 245 239 248 228 240 244 245 228 247 265 269 266 268 275 284 292 291 291 289 282 272